TJS-10

Last updated on Wed Sep 09 2026 00:03:04 GMT+0000 (Coordinated Universal Time)

1 58204U 23169A 26250.53671795 -.00000267 00000+0 00000+0 0 9992 2 58204 2.7502 79.4282 0004591 131.7785 60.9588 1.00271280 10367
UTC large
Height (km)
Speed (km/s)
/
Latitude / Longitude
Inclination (degrees)
Orbital Period (minutes)
Azimuth
Elevation
Range (km)
Doppler Factor

Next 0 passes for location: London (51.5072 / 0.1276)

No passes found over London.
TJS-10